Location: Napier
(39.4830°S, 176.9170°E)
Time: 13:14:29
(UTC+13:00)

ISS - Visible Passes

Search period start: 24 January 2019 00:00
Search period end: 03 February 2019 00:00
Orbit: 404 x 410 km, 51.6° (Epoch: 24 January)

Date Brightness Start Highest point End Pass type
(mag) Time Alt. Az. Time Alt. Az. Time Alt. Az.
26 Jan -1.3 05:40:54 10° N 05:43:06 17° NE 05:45:20 10° E visible
28 Jan -2.9 05:33:27 10° NNW 05:36:37 43° NE 05:39:50 10° ESE visible
29 Jan -1.9 04:44:01 17° NNE 04:45:21 22° NE 04:48:02 10° E visible
30 Jan -1.0 03:54:46 11° ENE 03:54:46 11° ENE 03:55:26 10° ENE visible
30 Jan -3.7 05:27:29 14° WNW 05:30:15 71° SW 05:33:37 10° SE visible
31 Jan -3.5 04:38:10 46° N 04:38:51 59° NE 04:42:10 10° ESE visible
01 Feb -1.7 03:48:46 22° E 03:48:46 22° E 03:50:29 10° ESE visible
01 Feb -2.5 05:21:29 13° W 05:24:01 32° SSW 05:27:05 10° SE visible
02 Feb -3.4 04:32:02 49° WSW 04:32:28 53° SW 04:35:47 10° SE visible
